Location: Unspecified
(0.0000°N, 0.0000°E)
Time: 08:56:20
(UTC+01:00)

ATLAS V CENTAUR R/B - Visible Passes

Search period start: 21 November 2017 00:00
Search period end: 01 December 2017 00:00
Orbit: 231 x 27807 km, 18.1° (Epoch: 20 November)

Date Brightness Start Highest point End Pass type
(mag) Time Alt. Az. Time Alt. Az. Time Alt. Az.
21 Nov 4.6 05:33:40 23° NW 05:36:21 50° NNE 05:57:12 10° ESE visible
21 Nov 6.3 14:18:46 10° WSW 16:26:04 39° WSW 21:15:20 49° NNE visible
22 Nov 4.7 05:43:03 20° NW 05:46:15 57° NNE 06:11:42 10° ESE visible
22 Nov 6.3 14:31:26 10° WSW 16:35:34 36° WSW 21:24:40 50° NNE visible
23 Nov 4.9 05:52:18 16° NW 05:56:02 65° NNE 06:27:07 10° ESE visible
23 Nov 6.3 14:44:18 10° WSW 16:44:50 34° WSW 21:33:51 51° N visible
24 Nov 5.1 06:01:23 13° WNW 06:05:41 73° NNE 06:44:01 10° ESE visible
24 Nov 6.3 14:57:27 10° WSW 16:53:53 31° WSW 21:42:52 51° N visible
25 Nov 5.2 06:10:19 10° WNW 06:15:14 79° NNE 12:15:36 10° E visible
25 Nov 6.3 15:10:56 10° WSW 17:02:43 28° WSW 21:51:45 49° N visible
26 Nov 5.4 06:19:21 10° WNW 06:24:39 86° NNE 12:41:09 10° E visible
26 Nov 6.4 15:24:53 10° WSW 17:11:19 25° WSW 22:00:27 47° NNW visible
27 Nov 6.5 15:39:30 10° WSW 17:19:44 23° WSW 22:09:01 44° NNW visible
28 Nov 6.6 15:55:02 10° WSW 17:27:55 20° WSW 22:17:25 41° NNW visible
29 Nov 6.7 16:11:58 10° WSW 17:35:54 18° WSW 22:25:40 37° NW visible
30 Nov 6.8 16:31:09 10° WSW 17:43:41 15° WSW 22:33:44 34° NW visible
